Wind_Speed
4 4 5 6 8 9 8 7 6 6 6 7 9 8 4 8 11 13 11 10 9 10 9 9 8 6 5 4 2 2 1 2 3 4 5 5 6 8 10 11 11 10 12 13 13
9 8 8 8 10 10 10 8 7 6 6 7 9 10 9 5 9 10 10 10 10 10 10 9 8 8 7 5 3 3 0 2 2 3 4 6 7 9 10 10 10 10 10 10 10
16 13 12 11 12 12 11 9 7 7 7 7 8 10 10 8 7 10 10 10 10 10 11 9 8 8 7 6 4 4 1 1 1 3 6 7 8 10 9 9 10 10 10 11 11
19 17 15 14 13 12 10 9 8 7 7 8 9 8 9 9 5 8 9 9 10 10 10 9 8 8 6 6 6 6 4 3 4 6 7 9 12 13 12 10 10 10 11 11 11
17 16 15 13 12 10 9 8 7 7 8 8 9 9 7 9 7 7 7 8 9 10 11 9 7 6 6 7 5 8 7 4 6 8 9 11 14 16 12 11 11 11 11 11 12
16 14 12 11 10 9 7 6 6 5 6 7 9 9 8 8 7 8 8 8 8 10 8 9 8 6 6 6 7 4 8 8 8 10 10 13 15 15 12 11 11 11 12 12 13
16 13 11 9 8 7 6 7 7 5 4 6 7 9 10 8 8 8 7 8 8 8 8 8 9 8 8 5 8 8 5 9 11 12 16 13 13 12 12 12 12 12 11 12 12
13 13 11 9 7 5 3 3 4 4 6 7 5 7 6 7 7 7 7 7 7 6 8 9 9 9 9 11 8 8 5 9 13 19 15 13 12 19 15 13 14 13 13 12 13
10 10 10 10 8 6 4 3 3 4 6 5 7 4 4 6 7 7 6 6 8 7 8 8 9 9 11 14 7 7 8 15 14 19 18 15 23 21 18 15 14 15 14 13 13
8 8 8 7 7 7 6 5 5 4 4 4 4 2 4 5 5 6 6 5 8 8 7 8 9 10 10 13 5 12 13 18 19 22 19 23 24 17 21 18 15 17 15 13 14
8 7 7 6 7 8 7 6 5 4 4 4 4 3 4 4 5 5 5 5 8 8 9 8 7 9 9 12 11 13 17 18 24 17 30 27 20 14 20 17 15 18 16 14 14
7 8 8 7 7 8 7 7 6 6 7 7 5 5 5 5 4 5 6 7 8 8 9 9 7 10 10 12 12 15 16 18 17 26 29 22 22 11 13 15 15 17 16 14 14
7 7 7 7 6 7 7 7 6 7 9 10 10 7 5 6 5 5 7 8 9 8 10 9 8 11 11 13 14 16 12 23 23 30 25 17 12 9 12 11 13 14 17 15 14
8 8 8 8 7 7 8 7 7 8 7 6 4 4 6 7 4 7 8 9 9 9 11 6 10 12 12 12 16 18 17 26 27 21 8 17 7 15 12 15 12 15 17 17 16
9 9 9 9 8 9 8 8 8 8 3 3 3 4 7 7 8 8 9 10 10 12 9 10 12 13 13 11 15 16 21 26 24 13 13 9 4 12 25 14 12 16 19 19 18
10 10 10 10 9 8 8 9 9 3 3 3 4 6 10 10 10 11 11 11 13 10 13 12 15 13 9 11 17 17 24 23 12 6 4 4 3 20 12 12 16 16 21 22 21
10 11 11 11 10 10 9 9 5 3 5 3 7 12 12 13 13 12 12 12 13 10 10 14 13 10 10 12 18 13 17 7 3 2 4 6 5 19 13 24 21 18 22 25 23
11 11 12 11 11 11 11 9 3 3 9 10 13 17 18 14 11 9 13 16 15 14 11 7 7 9 8 17 14 15 9 4 6 6 12 15 8 4 16 27 22 22 21 24 24
14 13 13 12 12 12 11 6 3 7 10 17 18 13 9 9 12 14 15 20 9 9 7 7 6 11 22 18 11 7 7 9 7 11 7 6 9 18 15 12 16 21 21 25 26
17 16 14 15 14 13 12 10 10 13 15 16 16 11 15 16 14 14 12 14 12 13 18 13 11 17 18 13 14 12 12 4 5 4 10 16 29 17 17 21 26 23 22 25 27
20 18 18 18 17 16 15 15 15 15 15 14 18 19 21 21 21 21 14 18 19 16 14 16 16 13 15 17 20 16 13 10 10 8 4 9 12 19 28 27 19 23 23 23 24
23 21 18 20 19 18 15 15 16 17 18 19 21 21 22 23 24 23 21 18 20 21 20 20 18 16 22 25 26 21 18 15 11 9 11 11 27 30 17 29 32 29 22 22 26
25 24 22 19 16 18 20 19 18 19 18 18 19 23 25 25 19 14 15 19 21 19 13 15 12 12 9 12 15 16 16 20 27 24 20 11 19 27 38 37 35 32 33 33 32
26 24 26 25 22 15 13 17 17 18 23 25 27 26 24 24 21 23 23 21 21 22 22 24 24 24 23 29 32 25 27 25 27 15 28 34 46 47 32 37 33 39 36 35 35
26 26 26 22 22 28 28 27 28 32 33 30 32 28 27 29 27 31 29 28 26 31 34 31 36 37 41 40 40 42 40 40 36 46 28 46 42 37 33 29 31 34 33 32 34
27 26 30 33 31 29 31 36 35 31 29 30 29 27 26 29 28 27 24 28 32 32 33 34 36 38 43 36 34 40 35 38 36 36 39 36 38 31 29 34 38 36 33 33 30
30 31 31 34 32 30 33 31 29 27 29 27 25 23 24 25 24 26 29 30 33 35 37 37 39 28 31 22 27 26 26 14 20 21 21 24 22 27 34 31 32 29 32 33 32
Wind_Direction
73 115 112 109 130 145 144 135 122 105 86 65 47 33 11 27 28 29 24 29 25 28 34 32 39 50 56 50 30 6 330 227 238 225 270 288 290 288 286 285 282 268 263 266 273
79 108 109 105 117 127 130 123 110 96 79 60 44 35 29 28 31 31 29 31 27 27 31 39 50 48 48 38 28 359 44 231 240 270 300 304 302 294 289 284 285 280 270 270 276
73 90 99 105 115 121 119 114 103 84 66 49 36 32 33 34 36 29 29 27 32 32 34 39 51 54 48 43 30 26 22 43 0 314 314 309 306 305 294 287 276 273 270 272 276
72 82 92 101 108 110 112 109 99 85 62 47 42 37 38 39 37 25 31 34 34 41 42 42 48 50 45 43 40 37 29 11 342 320 312 311 307 303 295 286 281 272 272 273 273
70 77 84 88 94 100 100 97 92 74 54 46 42 34 39 41 39 35 34 40 44 48 40 36 38 40 45 39 31 28 17 352 345 324 310 313 308 302 298 282 289 280 277 270 268
67 71 76 82 84 87 87 79 69 59 38 30 30 29 36 33 27 29 32 35 40 40 35 33 33 29 23 34 34 13 12 355 343 334 317 319 314 304 294 297 295 291 278 268 268
62 67 73 78 84 84 76 68 59 46 27 21 15 21 26 28 22 23 25 29 30 27 28 26 27 26 14 6 -0 8 356 352 347 337 324 315 333 317 297 295 292 291 281 268 267
58 60 61 65 63 57 46 37 38 35 35 26 354 10 16 17 16 17 16 22 18 8 13 18 14 18 14 1 346 0 348 345 334 337 334 314 318 317 292 286 287 285 280 272 269
51 52 51 53 52 44 27 360 340 16 9 352 4 333 356 358 9 7 6 12 6 357 2 359 3 5 2 2 355 344 330 341 336 333 326 318 313 312 297 279 282 275 276 273 268
38 43 41 37 40 36 24 11 343 309 335 350 2 350 327 355 354 356 358 355 360 354 346 342 354 354 353 1 350 337 341 337 337 322 322 316 315 306 285 276 272 266 266 266 262
17 17 20 17 17 14 11 1 340 315 296 313 318 322 322 301 342 350 349 350 348 345 342 335 330 342 344 351 348 341 338 331 337 327 324 325 322 296 271 276 270 255 256 258 255
5 359 355 355 354 352 350 347 336 304 290 268 281 301 318 320 303 339 349 340 332 327 329 326 302 332 331 343 342 341 336 337 335 324 327 330 335 286 280 285 268 254 253 254 252
1 354 347 342 338 332 332 331 325 314 294 277 262 280 310 317 303 318 331 327 323 319 322 317 302 321 322 332 332 338 325 333 326 328 327 336 339 326 318 292 274 263 251 252 246
360 356 352 346 337 338 337 334 332 325 294 276 260 263 317 318 293 313 321 328 323 316 321 308 314 312 314 322 328 333 330 333 324 324 305 325 300 322 323 321 283 269 254 248 242
353 353 352 349 349 347 342 340 334 326 308 300 283 306 323 314 310 308 315 320 320 312 306 299 310 302 303 311 322 318 328 328 315 307 305 296 280 310 317 315 300 274 257 250 243
343 346 347 346 344 340 340 337 329 314 261 303 315 326 319 315 305 302 302 311 317 308 306 293 307 295 290 305 323 317 330 324 311 310 256 251 271 305 301 320 312 280 257 251 247
332 339 341 343 341 339 339 341 326 233 318 313 320 320 316 311 302 296 299 310 307 311 300 304 303 287 281 305 320 318 338 310 287 253 302 279 260 286 293 324 314 292 264 253 251
324 325 326 331 333 335 336 339 274 291 319 317 322 315 306 303 298 292 303 306 302 298 291 290 292 292 292 306 295 309 328 290 295 303 305 292 238 279 310 314 303 303 280 255 252
304 312 320 320 321 321 324 321 278 303 307 310 311 310 301 304 300 298 302 298 285 298 280 291 256 286 299 299 274 300 289 286 272 282 285 245 277 297 301 315 315 315 296 270 259
291 297 302 307 311 311 310 299 296 299 302 302 300 287 287 297 294 297 296 287 286 294 293 280 278 291 287 280 274 278 281 266 243 281 294 289 298 278 308 315 316 312 300 278 266
286 291 294 295 298 299 299 294 295 295 294 293 290 285 286 289 288 288 274 284 287 288 290 284 279 279 274 278 285 273 247 250 249 244 271 294 299 304 300 308 314 313 302 283 279
289 291 290 290 294 291 287 289 287 287 290 291 288 285 285 288 286 284 277 280 285 290 285 283 275 261 274 276 275 262 252 243 232 258 231 269 273 293 312 311 310 316 303 285 279
289 289 289 287 290 285 284 283 286 292 295 295 291 289 290 288 289 280 277 283 286 280 273 283 267 289 279 265 266 264 266 261 256 255 244 255 266 298 303 313 309 311 304 293 283
293 293 289 289 286 270 267 281 286 288 292 293 292 289 290 289 284 281 284 281 280 273 277 276 261 249 257 272 285 274 279 271 261 240 262 252 279 299 321 311 308 309 305 296 288
294 292 286 277 271 281 284 280 283 291 292 287 283 283 286 282 281 281 284 279 273 272 272 264 272 276 279 281 286 285 282 282 261 275 253 290 286 288 315 309 305 305 301 294 286
293 295 290 282 282 282 281 284 289 293 285 286 280 284 275 272 276 282 275 278 285 288 294 293 282 288 286 289 289 286 282 289 289 283 263 286 285 319 308 302 300 296 294 293 285
287 285 279 282 284 283 282 283 283 287 285 279 276 266 267 264 263 270 284 289 290 290 288 288 277 266 268 280 283 287 294 274 284 285 289 284 296 291 304 308 305 299 299 297 290
Height
3160 3160 3161 3161 3162 3163 3164 3165 3165 3165 3165 3164 3163 3162 3161 3160 3159 3157 3156 3155 3153 3152 3151 3149 3148 3147 3146 3146 3146 3146 3147 3145 3144 3143 3142 3141 3141 3139 3138 3136 3135 3135 3134 3133 3132
3160 3161 3162 3162 3163 3164 3166 3166 3166 3166 3166 3165 3164 3162 3161 3160 3159 3159 3158 3156 3154 3153 3152 3150 3149 3148 3147 3147 3147 3146 3146 3145 3144 3143 3142 3140 3140 3138 3137 3135 3134 3132 3131 3130 3130
3162 3162 3163 3164 3165 3166 3166 3167 3167 3167 3167 3166 3165 3163 3162 3160 3161 3159 3158 3156 3155 3153 3152 3151 3150 3149 3148 3147 3147 3145 3145 3144 3143 3142 3141 3139 3138 3136 3135 3133 3132 3131 3130 3129 3129
3166 3166 3166 3167 3167 3167 3168 3168 3168 3168 3168 3167 3166 3164 3163 3162 3164 3160 3159 3158 3156 3155 3153 3152 3151 3150 3149 3148 3147 3146 3145 3144 3143 3141 3140 3138 3137 3135 3133 3132 3130 3129 3128 3127 3126
3170 3169 3169 3169 3169 3169 3170 3170 3170 3169 3169 3168 3166 3165 3164 3164 3163 3161 3160 3159 3157 3155 3154 3153 3152 3151 3150 3148 3147 3145 3144 3143 3142 3140 3139 3137 3135 3133 3131 3129 3128 3127 3126 3125 3124
3173 3172 3171 3171 3171 3171 3171 3171 3171 3170 3169 3168 3168 3167 3166 3166 3164 3162 3160 3159 3158 3156 3155 3154 3152 3151 3149 3148 3147 3146 3144 3142 3141 3139 3137 3135 3132 3130 3129 3127 3126 3124 3123 3122 3121
3174 3174 3173 3173 3172 3172 3172 3172 3172 3171 3170 3169 3168 3167 3167 3167 3164 3162 3161 3160 3158 3157 3156 3154 3153 3152 3150 3148 3146 3145 3144 3141 3139 3137 3134 3132 3131 3127 3125 3124 3123 3121 3120 3118 3117
3176 3175 3174 3174 3173 3173 3173 3173 3172 3171 3171 3170 3169 3168 3167 3166 3164 3163 3162 3160 3159 3158 3156 3154 3153 3151 3150 3148 3146 3144 3143 3141 3138 3135 3132 3131 3128 3124 3123 3121 3120 3118 3117 3116 3115
3178 3177 3176 3175 3174 3174 3174 3173 3172 3171 3170 3169 3169 3168 3168 3166 3164 3163 3162 3161 3159 3158 3156 3155 3154 3152 3150 3147 3145 3144 3143 3140 3137 3133 3129 3128 3123 3120 3118 3117 3116 3115 3114 3113 3112
3179 3178 3177 3177 3176 3175 3174 3173 3172 3172 3171 3170 3169 3170 3168 3167 3164 3163 3162 3161 3160 3158 3157 3155 3153 3151 3150 3148 3147 3143 3140 3138 3135 3131 3127 3124 3117 3116 3111 3111 3111 3110 3109 3108 3107
3180 3179 3178 3177 3176 3175 3174 3174 3175 3173 3170 3169 3169 3168 3166 3166 3165 3163 3162 3161 3160 3158 3156 3155 3154 3151 3149 3147 3144 3142 3139 3135 3132 3128 3121 3117 3112 3110 3106 3106 3106 3105 3105 3104 3104
3179 3179 3177 3176 3175 3174 3173 3172 3171 3172 3169 3168 3167 3166 3165 3164 3164 3162 3162 3161 3159 3157 3156 3155 3152 3150 3148 3146 3143 3140 3137 3133 3128 3124 3120 3113 3108 3106 3105 3104 3103 3103 3103 3103 3101
3179 3178 3177 3175 3174 3173 3172 3171 3169 3168 3167 3166 3165 3165 3165 3164 3162 3161 3161 3159 3157 3156 3154 3152 3151 3149 3147 3144 3142 3139 3136 3132 3128 3121 3114 3111 3105 3104 3104 3102 3101 3100 3100 3100 3099
3179 3177 3176 3174 3175 3172 3170 3169 3167 3166 3165 3165 3163 3163 3163 3162 3161 3160 3158 3159 3156 3154 3152 3150 3148 3146 3144 3143 3140 3136 3133 3129 3123 3120 3118 3112 3108 3100 3099 3098 3097 3096 3096 3096 3095
3178 3177 3175 3173 3172 3171 3171 3168 3167 3166 3165 3165 3163 3163 3162 3162 3161 3158 3157 3155 3153 3152 3152 3149 3146 3143 3142 3140 3138 3135 3130 3126 3120 3117 3114 3110 3111 3101 3097 3096 3095 3094 3093 3093 3093
3178 3176 3174 3173 3171 3170 3168 3167 3166 3167 3162 3162 3161 3161 3160 3158 3157 3155 3154 3153 3151 3149 3147 3145 3143 3141 3139 3137 3135 3132 3127 3120 3117 3115 3115 3109 3109 3100 3095 3095 3094 3092 3090 3089 3088
3177 3175 3174 3172 3171 3169 3167 3166 3167 3163 3164 3163 3161 3159 3158 3156 3154 3153 3151 3150 3149 3147 3144 3142 3139 3138 3136 3135 3133 3130 3127 3122 3117 3113 3107 3107 3107 3094 3093 3091 3089 3087 3085 3085 3085
3174 3173 3172 3170 3169 3167 3166 3166 3164 3162 3161 3160 3159 3157 3155 3153 3152 3150 3149 3147 3145 3143 3140 3139 3136 3135 3134 3133 3131 3128 3128 3127 3120 3111 3106 3104 3099 3092 3090 3088 3086 3084 3082 3081 3080
3172 3171 3170 3168 3167 3166 3166 3164 3162 3161 3160 3158 3156 3153 3152 3151 3150 3148 3145 3143 3141 3140 3140 3136 3133 3131 3129 3127 3127 3124 3124 3124 3120 3113 3108 3095 3091 3089 3085 3084 3082 3081 3079 3077 3076
3168 3168 3167 3165 3164 3163 3163 3161 3159 3158 3157 3155 3154 3152 3149 3148 3147 3145 3143 3139 3138 3137 3135 3132 3130 3127 3125 3124 3122 3121 3121 3120 3119 3113 3099 3087 3086 3082 3081 3079 3077 3075 3073 3071 3070
3164 3163 3162 3161 3161 3160 3158 3157 3155 3154 3153 3152 3149 3147 3146 3144 3142 3141 3138 3136 3133 3132 3131 3129 3126 3123 3121 3119 3117 3116 3114 3115 3115 3111 3104 3091 3078 3080 3077 3076 3074 3072 3070 3067 3066
3158 3158 3157 3156 3157 3154 3153 3151 3151 3149 3148 3146 3144 3143 3141 3139 3136 3135 3132 3133 3130 3129 3126 3126 3121 3116 3115 3113 3110 3108 3108 3109 3107 3103 3100 3094 3070 3073 3072 3071 3069 3066 3063 3062 3060
3152 3152 3151 3151 3150 3149 3148 3147 3145 3144 3143 3141 3140 3139 3137 3135 3134 3128 3127 3127 3126 3125 3121 3120 3115 3113 3108 3108 3104 3102 3101 3100 3099 3093 3088 3086 3067 3067 3066 3065 3062 3060 3057 3054 3051
3146 3145 3144 3144 3143 3142 3141 3140 3140 3139 3137 3136 3134 3134 3131 3129 3129 3123 3122 3122 3121 3119 3116 3113 3109 3108 3104 3100 3100 3093 3093 3091 3089 3084 3076 3070 3060 3055 3060 3058 3055 3050 3048 3044 3041
3140 3138 3137 3137 3138 3137 3135 3134 3132 3132 3131 3128 3124 3125 3125 3121 3119 3116 3115 3114 3112 3109 3106 3104 3099 3098 3094 3092 3089 3085 3084 3082 3078 3068 3071 3057 3056 3054 3054 3048 3046 3043 3039 3036 3032
3134 3132 3129 3128 3128 3128 3128 3124 3123 3122 3122 3119 3117 3118 3116 3113 3114 3110 3108 3108 3105 3101 3099 3095 3089 3088 3081 3083 3079 3069 3070 3066 3063 3059 3060 3053 3046 3050 3044 3040 3036 3033 3030 3027 3023
3125 3124 3122 3117 3118 3119 3117 3116 3114 3113 3112 3110 3109 3107 3105 3106 3103 3101 3099 3098 3096 3094 3090 3087 3084 3079 3069 3074 3071 3063 3056 3056 3054 3051 3052 3048 3046 3039 3036 3031 3027 3023 3021 3017 3014